Find Starlink 36460

NORAD ID: 67432 Int'l Des: 2026-005 Owner: SPXS Country: US Constellation: starlink operational
LEOCIRCULAR

实时位置

正在加载3D地球...

关于 Starlink 36460

正在加载描述...

即将过境

Passes for default location (London). Set your location on the main map for personalized predictions.

高度历史

Loading altitude history...

两行轨道根数

1 67432U 26005AE 26106.49643419 .00021822 00000-0 79942-3 0 9999
2 67432 43.0061 24.8809 0001749 241.6764 118.3911 15.27611319 14465
Epoch: Apr 16, 2026 • Age: 12 hours

当前状态

高度 486.8 km
速度 7.62 km/s
星下点 -18.58°S, 150.58°E
发射日期 Jan 12, 2026
运行时间 0.2 years
类型 internet

技术详情

分类 Payload
质量 575.00 kg
干质量 530.00 kg
总质量 575.00 kg
长度 0.30 m
直径 4.10 m
跨度 29.00 m
形状 Box + pan
制造商 SPXS
平台类型 Starlink V2MO
阶段状态 In Orbit
所有者/国家 SPXS/US

Most Searched